TimeCDT,TemperatureF,Dew PointF,Humidity,Sea Level PressureIn,VisibilityMPH,Wind Direction,Wind SpeedMPH,Gust SpeedMPH,PrecipitationIn,Events,Conditions,WindDirDegrees,DateUTC
12:42 AM,70.0,64.9,84,29.88,5.0,East,9.2,-,N/A,,Haze,90,2013-10-05 05:42:00
12:53 AM,69.1,64.9,87,29.87,5.0,East,6.9,-,N/A,,Overcast,90,2013-10-05 05:53:00
1:42 AM,69.1,64.9,87,29.86,5.0,East,9.2,-,N/A,,Overcast,90,2013-10-05 06:42:00
1:53 AM,69.1,64.9,87,29.85,5.0,East,9.2,-,N/A,,Overcast,90,2013-10-05 06:53:00
2:33 AM,68.0,64.0,87,29.86,5.0,Variable,6.9,-,N/A,,Overcast,0,2013-10-05 07:33:00
2:53 AM,69.1,64.9,87,29.85,6.0,Variable,3.5,-,N/A,,Overcast,0,2013-10-05 07:53:00
3:14 AM,69.1,64.9,87,29.86,6.0,NE,3.5,-,N/A,,Overcast,50,2013-10-05 08:14:00
3:53 AM,66.9,64.0,90,29.85,4.0,ENE,4.6,-,N/A,,Overcast,60,2013-10-05 08:53:00
4:15 AM,66.9,64.0,90,29.86,4.0,NE,8.1,-,N/A,,Overcast,40,2013-10-05 09:15:00
4:35 AM,66.9,64.0,90,29.86,6.0,ENE,5.8,-,N/A,,Overcast,70,2013-10-05 09:35:00
4:44 AM,66.9,63.0,87,29.87,7.0,Variable,5.8,-,N/A,,Overcast,0,2013-10-05 09:44:00
4:53 AM,66.9,63.0,87,29.87,8.0,ENE,5.8,-,N/A,,Overcast,70,2013-10-05 09:53:00
5:34 AM,66.9,62.1,84,29.86,10.0,ENE,4.6,-,N/A,,Overcast,60,2013-10-05 10:34:00
5:53 AM,66.0,62.1,87,29.86,10.0,ENE,5.8,-,N/A,,Overcast,60,2013-10-05 10:53:00
6:24 AM,66.9,63.0,87,29.88,8.0,Calm,Calm,-,N/A,,Overcast,0,2013-10-05 11:24:00
6:32 AM,66.0,63.0,90,29.87,6.0,NE,4.6,-,0.00,Rain,Rain,40,2013-10-05 11:32:00
6:53 AM,66.0,63.0,90,29.86,6.0,East,8.1,-,0.02,Rain,Light Rain,80,2013-10-05 11:53:00
7:53 AM,64.9,63.0,93,29.86,4.0,Variable,4.6,-,0.00,,Overcast,0,2013-10-05 12:53:00
8:53 AM,64.9,63.0,93,29.85,3.0,NNE,4.6,-,N/A,,Overcast,30,2013-10-05 13:53:00
9:53 AM,66.0,63.0,90,29.86,3.0,NNE,4.6,-,N/A,,Overcast,30,2013-10-05 14:53:00
10:28 AM,68.0,64.0,87,29.85,5.0,North,4.6,-,N/A,,Mostly Cloudy,10,2013-10-05 15:28:00
10:43 AM,68.0,64.9,90,29.85,5.0,NE,4.6,-,N/A,,Mostly Cloudy,40,2013-10-05 15:43:00
10:53 AM,68.0,64.0,87,29.85,5.0,North,3.5,-,N/A,,Mostly Cloudy,10,2013-10-05 15:53:00
11:53 AM,69.1,64.9,87,29.84,6.0,NNE,4.6,-,N/A,,Overcast,20,2013-10-05 16:53:00
12:36 PM,69.1,64.9,87,29.83,6.0,NE,6.9,-,0.00,Rain,Light Rain,40,2013-10-05 17:36:00
12:53 PM,70.0,66.0,87,29.82,7.0,Calm,Calm,-,0.00,,Overcast,0,2013-10-05 17:53:00
1:53 PM,71.1,66.0,84,29.79,7.0,Calm,Calm,-,N/A,,Overcast,0,2013-10-05 18:53:00
1:59 PM,71.1,66.9,87,29.79,7.0,Calm,Calm,-,N/A,,Overcast,0,2013-10-05 18:59:00
2:17 PM,73.9,66.9,79,29.79,10.0,Calm,Calm,-,N/A,,Overcast,0,2013-10-05 19:17:00
2:53 PM,75.9,64.0,67,29.76,10.0,SSW,11.5,20.7,N/A,,Overcast,200,2013-10-05 19:53:00
3:23 PM,73.9,63.0,68,29.76,10.0,South,10.4,18.4,N/A,,Scattered Clouds,190,2013-10-05 20:23:00
3:53 PM,75.0,63.0,66,29.74,10.0,SW,12.7,-,N/A,,Mostly Cloudy,220,2013-10-05 20:53:00
4:53 PM,73.0,62.1,68,29.74,10.0,SSW,8.1,-,N/A,,Overcast,210,2013-10-05 21:53:00
5:53 PM,69.1,60.1,73,29.75,10.0,WSW,10.4,-,N/A,,Overcast,250,2013-10-05 22:53:00
6:03 PM,68.0,60.1,76,29.76,10.0,WSW,8.1,18.4,N/A,,Overcast,250,2013-10-05 23:03:00
6:10 PM,68.0,59.0,73,29.76,10.0,WSW,13.8,18.4,N/A,,Overcast,240,2013-10-05 23:10:00
6:53 PM,64.9,54.0,68,29.75,10.0,SW,9.2,-,N/A,,Overcast,230,2013-10-05 23:53:00
7:53 PM,63.0,54.0,72,29.53,10.0,SW,6.9,-,N/A,,Overcast,220,2013-10-06 00:53:00
8:53 PM,61.0,48.9,64,29.79,10.0,SW,9.2,-,N/A,,Scattered Clouds,230,2013-10-06 01:53:00
9:53 PM,57.0,46.0,67,29.79,10.0,WSW,5.8,-,N/A,,Clear,240,2013-10-06 02:53:00
10:53 PM,53.1,45.0,74,29.80,10.0,SW,6.9,-,N/A,,Clear,230,2013-10-06 03:53:00
11:53 PM,51.1,41.0,68,29.80,10.0,SW,6.9,-,N/A,,Clear,220,2013-10-06 04:53:00